Location: Góry Miechowskie
(50.3599°N, 20.1803°E)
Time: 02:20:06
(UTC+00:00)

Vanguard 2 - Pass Details

Date: 18 September 2024
Orbit: 552 x 2910 km, 32.9° (Epoch: 09 October)

Event Time Altitude Azimuth Distance (km) Brightness Sun altitude
Rises 03:23:21 0° 234° (SW) 3,162 - -9.7°
Exits shadow 03:25:09 - 222° (SW) 2,706 9.8 -9.5°
Reaches altitude 10° 03:26:17 10° 213° (SSW) 2,495 9.7 -9.3°
Maximum altitude 03:30:02 17° 173° (S) 2,374 10.0 -8.7°
Drops below altitude 10° 03:34:51 10° 136° (SE) 3,365 11.3 -7.9°
Sets 03:39:49 0° 120° (ESE) 4,860 12.5 -7.2°
